TimeEDT,TemperatureF,Dew PointF,Humidity,Sea Level PressureIn,VisibilityMPH,Wind Direction,Wind SpeedMPH,Gust SpeedMPH,PrecipitationIn,Events,Conditions,WindDirDegrees,DateUTC
12:54 AM,39.9,37.0,89,30.38,10.0,Calm,Calm,-,N/A,,Clear,0,2013-05-25 04:54:00
1:54 AM,39.9,36.0,86,30.39,10.0,Calm,Calm,-,N/A,,Clear,0,2013-05-25 05:54:00
2:54 AM,39.9,36.0,86,30.37,10.0,Calm,Calm,-,N/A,,Clear,0,2013-05-25 06:54:00
3:54 AM,41.0,37.0,86,30.35,10.0,Calm,Calm,-,N/A,,Clear,0,2013-05-25 07:54:00
4:54 AM,41.0,37.0,86,30.34,10.0,Calm,Calm,-,N/A,,Clear,0,2013-05-25 08:54:00
5:54 AM,41.0,37.9,89,30.36,10.0,Calm,Calm,-,N/A,,Clear,0,2013-05-25 09:54:00
6:54 AM,41.0,37.9,89,30.39,10.0,West,4.6,-,N/A,,Clear,270,2013-05-25 10:54:00
7:54 AM,45.0,39.9,82,30.40,10.0,Calm,Calm,-,N/A,,Clear,0,2013-05-25 11:54:00
8:54 AM,48.0,39.0,71,30.40,10.0,Calm,Calm,-,N/A,,Clear,0,2013-05-25 12:54:00
9:54 AM,52.0,42.1,69,30.42,10.0,Calm,Calm,-,N/A,,Clear,0,2013-05-25 13:54:00
10:54 AM,55.9,43.0,62,30.40,10.0,Calm,Calm,-,N/A,,Clear,0,2013-05-25 14:54:00
11:54 AM,60.1,43.0,53,30.39,10.0,North,6.9,-,N/A,,Clear,10,2013-05-25 15:54:00
12:54 PM,61.0,41.0,48,30.38,10.0,Variable,3.5,-,N/A,,Clear,0,2013-05-25 16:54:00
1:54 PM,62.1,39.0,43,30.38,10.0,Calm,Calm,-,N/A,,Clear,0,2013-05-25 17:54:00
2:54 PM,62.1,39.0,43,30.35,10.0,Calm,Calm,-,N/A,,Clear,0,2013-05-25 18:54:00
3:54 PM,64.0,39.0,40,30.33,10.0,West,3.5,-,N/A,,Clear,280,2013-05-25 19:54:00
4:54 PM,64.0,37.0,37,30.31,10.0,Variable,3.5,-,N/A,,Clear,0,2013-05-25 20:54:00
5:54 PM,64.0,36.0,35,30.30,10.0,Calm,Calm,-,N/A,,Clear,0,2013-05-25 21:54:00
6:54 PM,62.1,45.0,53,30.30,10.0,NNW,9.2,-,N/A,,Clear,330,2013-05-25 22:54:00
7:54 PM,59.0,41.0,51,30.30,10.0,NNW,10.4,-,N/A,,Scattered Clouds,340,2013-05-25 23:54:00
8:54 PM,57.0,43.0,59,30.29,10.0,NNW,5.8,-,N/A,,Scattered Clouds,340,2013-05-26 00:54:00
9:54 PM,54.0,41.0,62,30.30,10.0,North,5.8,-,N/A,,Overcast,360,2013-05-26 01:54:00
10:54 PM,51.1,39.0,63,30.30,10.0,North,6.9,-,N/A,,Partly Cloudy,10,2013-05-26 02:54:00
11:54 PM,48.0,39.0,71,30.32,10.0,North,3.5,-,N/A,,Clear,350,2013-05-26 03:54:00